Springdale Heights Real Estate, NSW, 2641 Albury

Thinking about buying in Springdale Heights? Now could not be a better time, with a whopping 1441 properties either residential or commercial there's certainly plenty to choose from.

The average property price for this area is $362,000 with prices in this suburb ranging from $117,000 to $1,220,000.

Distance to the coast is 224 Km.

Springdale Heights Real Estate Market Outlook

In Springdale Heights there has been a history of lower than average prices and demand, offering opportunities for investors or first home owners, especially in the context of the growth in working from home. Low average incomes in Springdale Heights is reflected in smaller and lower quality accommodation. Over time this may change providsing long-term returns but in the short to medium term, prices are likely to be less than state averages. Low average earnings from people in Springdale Heights leads to lower quality housing which also negatively impacts the provision of facilities. As a consequence this area is often seen as less desirable, with lower quality of housing and slower price growth. Low population density implies low demand and limits housing choices and price increases. Could be a good entry point for first home buyers needing to somehow get into the market. Lower than average industry presence in Springdale Heights we believe will be less of a negative impact than it has in the past. Post-COVID and the growth in working from home has lessened the demand for local employment options. This may make Springdale Heights a better buying opportunity than it may have been in the past.

About

For Sale

RayWhite 41 CARDO DR, SPRINGDALE HEIGHTS, NSW, 2641 3 1 2 Auction
RayWhite 15 CHAFIA PL, SPRINGDALE HEIGHTS, NSW, 2641 3 2 2 $465,000

More

Local Schools


None within suburb boundary

(While the above schools are located with the suburb of Springdale Heights there may also be nearby schools whose catchments cover this suburb)

Local Crime Stats


Average Local Climate by month


(mm)
RAIN
Min (°C)
TEMP
Max (°C)
TEMP
Min (%)
HUMIDITY
Max (%)
HUMIDITY
(m/sec)
WIND
(MJ/sq m)
SOLAR
Jan1.214.533.620.180.13.126.9
Feb2.014.231.428.487.42.723.4
Mar1.711.327.634.191.52.418.5
Apr1.27.123.04295.41.914.4
May1.43.517.455.998.52.09.9
Jun1.31.914.166.798.81.88.5
Jul1.61.613.169.299.22.48.4
Aug1.62.014.361.698.82.411.3
Sept1.43.417.952.798.12.616.2
Oct1.95.622.042.697.22.721.3
Nov1.28.527.328.393.83.125.1
Dec1.511.530.422.587.33.227.5

source: Australian Government Bureau of Meteorology

Recently Sold

05-05-2022 $270,000 43 GAROOGONG RD SPRINGDALE HEIGHTS 2641
02-05-2022 $330,000 2 GORDON ST SPRINGDALE HEIGHTS 2641
20-04-2022 $590,000 5 DIRRU CT SPRINGDALE HEIGHTS 2641
14-04-2022 $487,500 366 KAITLERS RD SPRINGDALE HEIGHTS 2641
01-04-2022 $225,000 5 / 612 PRUNE ST SPRINGDALE HEIGHTS 2641
17-03-2022 $185,000 2 / 388 KAITLERS RD SPRINGDALE HEIGHTS 2641
17-03-2022 $1,250,000 172 FENCHURCH DR SPRINGDALE HEIGHTS 2641
15-03-2022 $835,000 118 WHITEHALL AVE SPRINGDALE HEIGHTS 2641
14-03-2022 $292,500 5 / 320 KAITLERS RD SPRINGDALE HEIGHTS 2641
11-03-2022 $549,000 11 IDAHO CT SPRINGDALE HEIGHTS 2641
08-03-2022 $350,000 18 GOOLAGAR CRES SPRINGDALE HEIGHTS 2641
03-03-2022 $295,000 15 KANSAS CT SPRINGDALE HEIGHTS 2641
25-02-2022 $165,000 5 / 604 PRUNE ST SPRINGDALE HEIGHTS 2641
21-02-2022 $263,000 1 / 604 PRUNE ST SPRINGDALE HEIGHTS 2641
20-01-2022 $1,350,000 2 BIRUBI RD SPRINGDALE HEIGHTS 2641
18-01-2022 $286,000 2 OHIO CT SPRINGDALE HEIGHTS 2641
14-01-2022 $550,000 4 BAMBOOKA PL SPRINGDALE HEIGHTS 2641
04-01-2022 $930,000 107 WHITEHALL AVE SPRINGDALE HEIGHTS 2641
23-12-2021 $344,000 6 ARUNTA PL SPRINGDALE HEIGHTS 2641
20-12-2021 $785,000 2 WHITEHALL AVE SPRINGDALE HEIGHTS 2641
17-12-2021 $420,000 40 CHAFIA PL SPRINGDALE HEIGHTS 2641
13-12-2021 $290,000 366 KAITLERS RD SPRINGDALE HEIGHTS 2641
08-12-2021 $785,000 2 DALBIRRA PL SPRINGDALE HEIGHTS 2641
07-12-2021 $406,500 18 BURONGA DR SPRINGDALE HEIGHTS 2641
03-12-2021 $680,000 23 LEICESTER ST SPRINGDALE HEIGHTS 2641
01-12-2021 $489,000 32 DARRI DR SPRINGDALE HEIGHTS 2641
30-11-2021 $500,000 604 KEMP ST SPRINGDALE HEIGHTS 2641
23-11-2021 $173,000 4 / 612 PRUNE ST SPRINGDALE HEIGHTS 2641
22-11-2021 $150,000 8 / 604 PRUNE ST SPRINGDALE HEIGHTS 2641
17-11-2021 $220,000 2 / 488 KAITLERS RD SPRINGDALE HEIGHTS 2641
12-11-2021 $485,000 21 DALBIRRA PL SPRINGDALE HEIGHTS 2641
22-10-2021 $151,501 1 / 604 PRUNE ST SPRINGDALE HEIGHTS 2641
20-10-2021 $382,500 618 STOREY ST SPRINGDALE HEIGHTS 2641
14-10-2021 $359,000 3 CURRINGA PL SPRINGDALE HEIGHTS 2641
11-10-2021 $1,700,000 260 SHAW ST SPRINGDALE HEIGHTS 2641
11-10-2021 $332,000 19 ARUMA CRES SPRINGDALE HEIGHTS 2641
11-10-2021 $1,700,000 260 SHAW ST SPRINGDALE HEIGHTS 2641
11-10-2021 $332,000 19 ARUMA CRES SPRINGDALE HEIGHTS 2641
08-10-2021 $60,000 4 / 610 KEMP ST SPRINGDALE HEIGHTS 2641
06-10-2021 $210,000 2 GORDON ST SPRINGDALE HEIGHTS 2641
01-10-2021 $885,000 12 LEICESTER ST SPRINGDALE HEIGHTS 2641
29-09-2021 $496,000 8 TEXAS CT SPRINGDALE HEIGHTS 2641
27-09-2021 $570,000 608 WEBB ST SPRINGDALE HEIGHTS 2641
24-09-2021 $294,000 18 CONMURRA WAY SPRINGDALE HEIGHTS 2641
14-09-2021 $380,000 616 KEMP ST SPRINGDALE HEIGHTS 2641
10-09-2021 $280,500 6 ALGONA RD SPRINGDALE HEIGHTS 2641
12-08-2021 $225,000 5 / 183 BARANBALE WAY SPRINGDALE HEIGHTS 2641
09-08-2021 $453,000 4 BURONGA DR SPRINGDALE HEIGHTS 2641
06-08-2021 $162,000 6 / 604 PRUNE ST SPRINGDALE HEIGHTS 2641
05-08-2021 $379,000 14 DARRAMBAL DR SPRINGDALE HEIGHTS 2641

Residz covers 12m+ Australian properties and brings together a wealth of data to give you a better understanding of an area. From crime and schools to bush fire, flood risk and more. Begin your search for properties for sale or learn more about where you currently reside. Residz is an exciting next-generation Real Estate platform getting better by the day!